STARLINK-32756 (62752 NORAD) Tracking and Keplerian Element Data

This shows tracking and keplerian element data for the satellite.

Feedback or suggestion? Click here.




ElementValue
Catalog62752
NameSTARLINK-32756
Epoch Orbit221
Epoch Day35.25001157
Epoch Year2025
RAAN253.8124
Inclination42.9996
Eccentricity0.000181
Argument of Perigee269.7345
Mean Anonmoly120.5471
Mean Motion15.64341527
Decay Rate-0.01476566
L11 62752U 25014T 25035.25001157 -.01476566 00000+0 -16758-1 0 9994
L22 62752 42.9996 253.8124 0001810 269.7345 120.5471 15.64341527 2217



Live tracking and technical data element details for STARLINK-32756 (NORAD 62752). STARLINK-32756 can be tracked NOW for your location showing map with azimuth and elevation plus other details from your city location.







IsCatalogInMostPopularTable: catalog: 62752, numindb: 3
Update: records affected: 1



GetName: 62752 STARLINK-32756

Hit Count: updated at: Sun, 09 Feb 2025 15:25:59 GMT